Time,TemperatureF,DewpointF,PressureIn,WindDirection,WindDirectionDegrees,WindSpeedMPH,WindSpeedGustMPH,Humidity,HourlyPrecipIn,Conditions,Clouds,dailyrainin,SoftwareType,DateUTC
2013-02-21 00:03:00,22.0,14.0,-100.00,NNE,25,1.0,2.0,71,0.00,,,0.00,,2013-02-21 05:03:00,
2013-02-21 00:12:00,22.0,14.0,-100.00,NNE,25,1.0,2.0,71,0.00,,,0.00,,2013-02-21 05:12:00,
2013-02-21 00:37:00,20.0,15.0,-100.00,North,2,1.0,2.0,79,0.00,,,0.00,,2013-02-21 05:37:00,
2013-02-21 00:46:00,20.0,15.0,-100.00,North,2,1.0,2.0,79,0.00,,,0.00,,2013-02-21 05:46:00,
2013-02-21 01:01:00,20.0,15.0,-100.00,North,2,1.0,2.0,79,0.00,,,0.00,,2013-02-21 06:01:00,
2013-02-21 01:11:00,20.0,15.0,-100.00,North,2,1.0,2.0,79,0.00,,,0.00,,2013-02-21 06:11:00,
2013-02-21 01:31:00,19.0,15.0,-100.00,ESE,111,0.0,2.0,83,0.00,,,0.00,,2013-02-21 06:31:00,
2013-02-21 01:42:00,19.0,15.0,-100.00,ESE,111,0.0,2.0,83,0.00,,,0.00,,2013-02-21 06:42:00,
2013-02-21 01:52:00,19.0,15.0,-100.00,ESE,111,0.0,2.0,83,0.00,,,0.00,,2013-02-21 06:52:00,
2013-02-21 02:01:00,19.0,15.0,-100.00,ESE,111,0.0,2.0,83,0.00,,,0.00,,2013-02-21 07:01:00,
2013-02-21 02:11:00,19.0,15.0,-100.00,ESE,111,0.0,2.0,83,0.00,,,0.00,,2013-02-21 07:11:00,
2013-02-21 02:32:00,18.0,14.0,-100.00,NE,56,1.0,2.0,85,0.00,,,0.00,,2013-02-21 07:32:00,
2013-02-21 02:42:00,18.0,14.0,-100.00,NE,56,1.0,2.0,85,0.00,,,0.00,,2013-02-21 07:42:00,
2013-02-21 02:52:00,18.0,14.0,-100.00,NE,56,1.0,2.0,85,0.00,,,0.00,,2013-02-21 07:52:00,
2013-02-21 03:02:00,18.0,14.0,-100.00,NE,56,1.0,2.0,85,0.00,,,0.00,,2013-02-21 08:02:00,
2013-02-21 03:11:00,18.0,14.0,-100.00,NE,56,1.0,2.0,85,0.00,,,0.00,,2013-02-21 08:11:00,
2013-02-21 03:42:00,17.0,14.0,-100.00,WNW,283,0.0,0.0,88,0.00,,,0.00,,2013-02-21 08:42:00,
2013-02-21 03:52:00,17.0,14.0,-100.00,WNW,283,0.0,0.0,88,0.00,,,0.00,,2013-02-21 08:52:00,
2013-02-21 04:02:00,17.0,14.0,-100.00,WNW,283,0.0,0.0,88,0.00,,,0.00,,2013-02-21 09:02:00,
2013-02-21 04:11:00,17.0,14.0,-100.00,WNW,283,0.0,0.0,88,0.00,,,0.00,,2013-02-21 09:11:00,
2013-02-21 04:42:00,16.0,13.0,-100.00,NNW,348,1.0,2.0,89,0.00,,,0.00,,2013-02-21 09:42:00,
2013-02-21 04:52:00,16.0,13.0,-100.00,NNW,348,1.0,2.0,89,0.00,,,0.00,,2013-02-21 09:52:00,
2013-02-21 05:01:00,16.0,13.0,-100.00,NNW,348,1.0,2.0,89,0.00,,,0.00,,2013-02-21 10:01:00,
2013-02-21 05:11:00,16.0,13.0,-100.00,NNW,348,1.0,2.0,89,0.00,,,0.00,,2013-02-21 10:11:00,
2013-02-21 05:31:00,16.0,13.0,-100.00,West,265,0.0,0.0,88,0.00,,,-99.99,,2013-02-21 10:31:00,
2013-02-21 05:41:00,16.0,13.0,-100.00,West,265,0.0,0.0,88,0.00,,,-99.99,,2013-02-21 10:41:00,
2013-02-21 05:51:00,16.0,13.0,-100.00,West,265,0.0,0.0,88,0.00,,,-99.99,,2013-02-21 10:51:00,
2013-02-21 06:01:00,16.0,13.0,-100.00,West,265,0.0,0.0,88,0.00,,,-99.99,,2013-02-21 11:01:00,
2013-02-21 06:11:00,16.0,13.0,-100.00,West,265,0.0,0.0,88,0.00,,,-99.99,,2013-02-21 11:11:00,
2013-02-21 06:41:00,16.0,13.0,-100.00,NW,324,0.0,3.0,88,0.00,,,0.00,,2013-02-21 11:41:00,
2013-02-21 06:52:00,16.0,13.0,-100.00,NW,324,0.0,3.0,88,0.00,,,0.00,,2013-02-21 11:52:00,
2013-02-21 07:01:00,16.0,13.0,-100.00,NW,324,0.0,3.0,88,0.00,,,0.00,,2013-02-21 12:01:00,
2013-02-21 07:11:00,16.0,13.0,-100.00,NW,324,0.0,3.0,88,0.00,,,0.00,,2013-02-21 12:11:00,
2013-02-21 07:43:00,16.0,13.0,-100.00,NW,307,0.0,3.0,87,0.00,,,0.00,,2013-02-21 12:43:00,
2013-02-21 07:53:00,16.0,13.0,-100.00,NW,307,0.0,3.0,87,0.00,,,0.00,,2013-02-21 12:53:00,
2013-02-21 08:02:00,16.0,13.0,-100.00,NW,307,0.0,3.0,87,0.00,,,0.00,,2013-02-21 13:02:00,
2013-02-21 08:12:00,16.0,13.0,-100.00,NW,307,0.0,3.0,87,0.00,,,0.00,,2013-02-21 13:12:00,
2013-02-21 08:42:00,22.0,18.0,-100.00,South,174,4.0,7.0,85,0.00,,,0.00,,2013-02-21 13:42:00,
2013-02-21 08:52:00,22.0,18.0,-100.00,South,174,4.0,7.0,85,0.00,,,0.00,,2013-02-21 13:52:00,
2013-02-21 09:02:00,22.0,18.0,-100.00,South,174,4.0,7.0,85,0.00,,,0.00,,2013-02-21 14:02:00,
2013-02-21 09:11:00,22.0,18.0,-100.00,South,174,4.0,7.0,85,0.00,,,0.00,,2013-02-21 14:11:00,
2013-02-21 09:42:00,26.0,15.0,-100.00,SSE,157,6.0,12.0,62,0.00,,,0.00,,2013-02-21 14:42:00,
2013-02-21 09:52:00,26.0,15.0,-100.00,SSE,157,6.0,12.0,62,0.00,,,0.00,,2013-02-21 14:52:00,
2013-02-21 10:02:00,26.0,15.0,-100.00,SSE,157,6.0,12.0,62,0.00,,,0.00,,2013-02-21 15:02:00,
2013-02-21 10:12:00,26.0,15.0,-100.00,SSE,157,6.0,12.0,62,0.00,,,0.00,,2013-02-21 15:12:00,
2013-02-21 10:32:00,29.0,15.0,-100.00,SSE,157,6.0,11.0,56,0.00,,,0.00,,2013-02-21 15:32:00,
2013-02-21 10:42:00,29.0,15.0,-100.00,SSE,157,6.0,11.0,56,0.00,,,0.00,,2013-02-21 15:42:00,
2013-02-21 10:52:00,29.0,15.0,-100.00,SSE,157,6.0,11.0,56,0.00,,,0.00,,2013-02-21 15:52:00,
2013-02-21 11:02:00,29.0,15.0,-100.00,SSE,157,6.0,11.0,56,0.00,,,0.00,,2013-02-21 16:02:00,
2013-02-21 11:12:00,29.0,15.0,-100.00,SSE,157,6.0,11.0,56,0.00,,,0.00,,2013-02-21 16:12:00,
2013-02-21 11:42:00,33.0,16.0,-100.00,SSE,168,6.0,11.0,50,0.00,,,0.00,,2013-02-21 16:42:00,
2013-02-21 11:52:00,33.0,16.0,-100.00,SSE,168,6.0,11.0,50,0.00,,,0.00,,2013-02-21 16:52:00,
2013-02-21 12:02:00,33.0,16.0,-100.00,SSE,168,6.0,11.0,50,0.00,,,0.00,,2013-02-21 17:02:00,
2013-02-21 12:11:00,33.0,16.0,-100.00,SSE,168,6.0,11.0,50,0.00,,,0.00,,2013-02-21 17:11:00,
2013-02-21 12:42:00,37.0,16.0,-100.00,South,178,6.0,12.0,42,0.00,,,0.00,,2013-02-21 17:42:00,
2013-02-21 12:52:00,37.0,16.0,-100.00,South,178,6.0,12.0,42,0.00,,,0.00,,2013-02-21 17:52:00,
2013-02-21 13:02:00,37.0,16.0,-100.00,South,178,6.0,12.0,42,0.00,,,0.00,,2013-02-21 18:02:00,
2013-02-21 13:12:00,37.0,16.0,-100.00,South,178,6.0,12.0,42,0.00,,,0.00,,2013-02-21 18:12:00,
2013-02-21 13:42:00,41.0,16.0,-100.00,South,187,6.0,11.0,36,0.00,,,0.00,,2013-02-21 18:42:00,
2013-02-21 13:52:00,41.0,16.0,-100.00,South,187,6.0,11.0,36,0.00,,,0.00,,2013-02-21 18:52:00,
2013-02-21 14:02:00,41.0,16.0,-100.00,South,187,6.0,11.0,36,0.00,,,0.00,,2013-02-21 19:02:00,
2013-02-21 14:12:00,41.0,16.0,-100.00,South,187,6.0,11.0,36,0.00,,,0.00,,2013-02-21 19:12:00,
2013-02-21 14:42:00,42.0,15.0,-100.00,South,175,7.0,12.0,33,0.00,,,0.00,,2013-02-21 19:42:00,
2013-02-21 14:52:00,42.0,15.0,-100.00,South,175,7.0,12.0,33,0.00,,,0.00,,2013-02-21 19:52:00,
2013-02-21 15:01:00,42.0,15.0,-100.00,South,175,7.0,12.0,33,0.00,,,0.00,,2013-02-21 20:01:00,
2013-02-21 15:11:00,42.0,15.0,-100.00,South,175,7.0,12.0,33,0.00,,,0.00,,2013-02-21 20:11:00,
2013-02-21 15:42:00,42.0,15.0,-100.00,South,179,5.0,14.0,33,0.00,,,0.00,,2013-02-21 20:42:00,
2013-02-21 15:53:00,42.0,15.0,-100.00,South,179,5.0,14.0,33,0.00,,,0.00,,2013-02-21 20:53:00,
2013-02-21 16:02:00,42.0,15.0,-100.00,South,179,5.0,14.0,33,0.00,,,0.00,,2013-02-21 21:02:00,
2013-02-21 16:12:00,42.0,15.0,-100.00,South,179,5.0,14.0,33,0.00,,,0.00,,2013-02-21 21:12:00,
2013-02-21 16:42:00,41.0,13.0,-100.00,SSE,162,6.0,11.0,32,0.00,,,-99.99,,2013-02-21 21:42:00,
2013-02-21 16:52:00,41.0,13.0,-100.00,SSE,162,6.0,11.0,32,0.00,,,-99.99,,2013-02-21 21:52:00,
2013-02-21 17:01:00,41.0,13.0,-100.00,SSE,162,6.0,11.0,32,0.00,,,-99.99,,2013-02-21 22:01:00,
2013-02-21 17:11:00,41.0,13.0,-100.00,SSE,162,6.0,11.0,32,0.00,,,-99.99,,2013-02-21 22:11:00,
2013-02-21 17:42:00,40.0,13.0,-100.00,SSE,149,4.0,11.0,33,0.00,,,0.00,,2013-02-21 22:42:00,
2013-02-21 17:52:00,40.0,13.0,-100.00,SSE,149,4.0,11.0,33,0.00,,,0.00,,2013-02-21 22:52:00,
2013-02-21 18:01:00,40.0,13.0,-100.00,SSE,149,4.0,11.0,33,0.00,,,0.00,,2013-02-21 23:01:00,
2013-02-21 18:11:00,40.0,13.0,-100.00,SSE,149,4.0,11.0,33,0.00,,,0.00,,2013-02-21 23:11:00,
2013-02-21 18:42:00,39.0,14.0,-100.00,SSE,150,5.0,11.0,35,0.00,,,0.00,,2013-02-21 23:42:00,
2013-02-21 18:53:00,39.0,14.0,-100.00,SSE,150,5.0,11.0,35,0.00,,,0.00,,2013-02-21 23:53:00,
2013-02-21 19:02:00,39.0,14.0,-100.00,SSE,150,5.0,11.0,35,0.00,,,0.00,,2013-02-22 00:02:00,
2013-02-21 19:11:00,39.0,14.0,-100.00,SSE,150,5.0,11.0,35,0.00,,,0.00,,2013-02-22 00:11:00,
2013-02-21 19:52:00,38.0,13.0,-100.00,SSE,152,5.0,11.0,36,0.00,,,0.00,,2013-02-22 00:52:00,
2013-02-21 20:01:00,38.0,13.0,-100.00,SSE,152,5.0,11.0,36,0.00,,,0.00,,2013-02-22 01:01:00,
2013-02-21 20:11:00,38.0,13.0,-100.00,SSE,152,5.0,11.0,36,0.00,,,0.00,,2013-02-22 01:11:00,
2013-02-21 20:42:00,38.0,14.0,-100.00,SE,139,2.0,13.0,37,0.00,,,0.00,,2013-02-22 01:42:00,
2013-02-21 20:52:00,38.0,14.0,-100.00,SE,139,2.0,13.0,37,0.00,,,0.00,,2013-02-22 01:52:00,
2013-02-21 21:02:00,38.0,14.0,-100.00,SE,139,2.0,13.0,37,0.00,,,0.00,,2013-02-22 02:02:00,
2013-02-21 21:11:00,38.0,14.0,-100.00,SE,139,2.0,13.0,37,0.00,,,0.00,,2013-02-22 02:11:00,
2013-02-21 21:32:00,35.0,19.0,-100.00,ESE,107,2.0,7.0,51,0.00,,,0.00,,2013-02-22 02:32:00,
2013-02-21 21:42:00,35.0,19.0,-100.00,ESE,107,2.0,7.0,51,0.00,,,0.00,,2013-02-22 02:42:00,
2013-02-21 21:52:00,35.0,19.0,-100.00,ESE,107,2.0,7.0,51,0.00,,,0.00,,2013-02-22 02:52:00,
2013-02-21 22:02:00,35.0,19.0,-100.00,ESE,107,2.0,7.0,51,0.00,,,0.00,,2013-02-22 03:02:00,
2013-02-21 22:11:00,35.0,19.0,-100.00,ESE,107,2.0,7.0,51,0.00,,,0.00,,2013-02-22 03:11:00,
2013-02-21 22:32:00,33.0,28.0,-100.00,South,170,0.0,6.0,80,0.05,,,0.05,,2013-02-22 03:32:00,
2013-02-21 22:42:00,33.0,28.0,-100.00,South,170,0.0,6.0,80,0.05,,,0.05,,2013-02-22 03:42:00,
2013-02-21 22:52:00,33.0,28.0,-100.00,South,170,0.0,6.0,80,0.05,,,0.05,,2013-02-22 03:52:00,
2013-02-21 23:02:00,33.0,28.0,-100.00,South,170,0.0,6.0,80,0.05,,,0.05,,2013-02-22 04:02:00,
2013-02-21 23:11:00,33.0,28.0,-100.00,South,170,0.0,6.0,80,0.05,,,0.05,,2013-02-22 04:11:00,
2013-02-21 23:32:00,32.0,27.0,-100.00,ESE,119,0.0,0.0,80,0.05,,,0.10,,2013-02-22 04:32:00,
2013-02-21 23:42:00,32.0,27.0,-100.00,ESE,119,0.0,0.0,80,0.05,,,0.10,,2013-02-22 04:42:00,
2013-02-21 23:52:00,32.0,27.0,-100.00,ESE,119,0.0,0.0,80,0.05,,,0.10,,2013-02-22 04:52:00,